RH
18 21 26 28 28 28 24 16 9 8 8 6 5 6 6 10 17 50 31 39 44 50 50 56 53 49 48 48 49 48 50 56 57 60 54 46 46 46 46 50 55 54 68 70 66 67 68 67 65
17 18 22 24 32 35 28 13 9 7 6 6 6 7 6 15 24 33 36 41 46 58 52 55 56 53 52 50 52 52 53 58 59 63 58 50 48 48 48 53 53 70 76 77 74 71 72 69 70
24 25 26 31 33 35 27 13 7 6 7 6 7 6 8 11 27 32 38 43 55 61 60 58 59 59 55 51 53 55 56 58 60 64 60 54 52 51 51 57 59 66 74 73 70 72 76 73 71
27 21 24 29 28 23 19 14 9 10 8 7 8 11 22 21 23 22 40 35 52 75 67 63 60 64 61 54 56 58 60 61 60 65 63 58 57 54 54 59 61 69 72 71 74 72 74 74 71
26 25 30 30 27 20 14 10 11 11 11 13 14 17 30 20 16 15 15 18 42 65 70 67 64 57 59 56 58 58 57 57 60 66 67 63 61 59 59 62 67 68 70 74 74 72 73 73 73
22 23 27 27 18 12 10 11 12 12 14 13 14 17 29 18 16 13 12 11 24 52 72 72 69 65 58 56 60 59 57 54 54 62 67 68 66 63 63 65 71 70 70 74 73 73 73 73 73
20 25 25 21 17 13 10 11 14 15 14 11 10 14 23 19 9 8 8 10 10 45 57 78 74 74 66 60 61 62 60 56 55 59 66 69 70 67 68 69 73 75 74 74 74 73 75 75 74
12 16 13 12 12 12 10 10 10 8 12 7 7 12 11 15 7 7 6 7 7 16 25 57 73 70 70 65 64 66 65 61 60 62 68 72 73 72 72 73 76 78 77 77 74 75 75 75 74
7 16 19 13 8 7 7 8 8 7 7 8 6 6 9 7 8 7 7 7 6 6 7 43 67 73 75 65 65 68 69 67 66 71 76 79 80 78 78 77 79 81 80 78 76 76 75 75 74
10 15 13 10 7 7 8 8 8 8 9 8 8 10 8 7 8 10 10 9 7 7 6 12 56 76 80 75 71 68 70 71 70 76 79 80 82 80 78 78 80 81 82 82 80 77 75 76 71
8 11 9 9 10 8 8 8 9 9 10 10 12 12 12 9 9 9 9 8 9 8 9 9 10 36 74 77 83 83 78 69 71 77 86 80 84 82 81 82 87 89 86 86 84 81 78 74 68
9 9 8 9 8 8 9 9 10 10 12 11 12 11 11 10 9 10 10 9 9 9 10 10 10 10 40 69 71 74 84 78 70 72 86 87 86 91 84 83 85 89 83 83 81 77 73 68 82
11 10 9 9 10 9 9 11 11 13 12 9 9 9 9 10 10 11 24 28 29 24 17 13 9 10 10 24 62 66 68 86 81 76 80 87 84 83 85 84 86 84 83 80 82 77 70 65 78
13 14 14 12 12 11 11 12 9 11 10 10 8 8 9 18 36 40 42 42 44 46 46 40 36 22 10 13 34 61 64 70 83 82 78 85 81 76 81 80 81 82 83 80 79 77 68 71 78
15 17 15 13 12 13 11 11 12 11 10 9 10 24 30 31 37 40 42 45 50 52 54 58 57 49 34 13 21 42 65 64 73 76 77 76 81 77 83 79 81 80 82 78 84 79 74 74 74
18 19 22 16 14 11 11 17 11 10 9 10 33 30 32 34 36 37 40 47 52 57 62 62 61 64 52 47 26 12 37 63 66 69 73 74 75 78 83 79 79 80 83 77 81 78 78 74 70
24 29 23 18 11 11 12 15 11 10 11 30 35 35 34 36 38 38 43 48 52 58 64 67 66 69 67 58 49 35 17 60 61 66 69 76 75 75 84 79 78 80 80 75 77 78 73 71 66
24 21 18 17 14 16 18 18 14 13 27 36 39 41 42 43 42 42 47 50 52 57 62 67 72 74 72 69 65 53 46 32 61 66 72 73 80 79 84 82 78 80 81 76 74 74 73 69 66
19 20 20 18 16 19 21 18 17 19 38 44 48 50 51 50 45 47 52 54 56 58 62 67 73 79 80 78 76 79 78 54 77 54 69 80 74 79 79 86 84 80 81 76 74 72 71 77 74
19 24 27 23 18 18 21 22 31 38 44 49 54 57 57 54 52 54 56 59 61 63 63 65 72 82 85 83 83 81 78 71 48 64 69 72 83 73 84 90 83 82 84 80 75 68 79 78 78
21 22 26 26 22 22 26 29 46 45 44 46 51 56 56 59 62 61 62 64 66 68 70 72 76 82 88 89 85 85 78 72 80 48 66 73 85 77 86 92 86 87 87 83 77 77 78 88 83
30 20 24 30 37 49 28 54 50 52 53 54 60 66 65 64 64 65 67 69 73 78 80 79 85 90 92 95 98 95 97 93 90 88 66 73 80 84 93 90 82 86 88 89 82 84 84 86 89
22 27 30 34 42 45 41 57 61 56 73 67 70 72 71 69 69 71 72 76 80 84 87 89 92 96 97 100 97 92 91 92 95 87 81 70 82 90 92 90 84 85 85 93 93 86 75 78 82
25 31 35 36 42 72 42 42 83 82 80 77 74 79 73 70 66 69 76 81 84 89 96 97 96 99 100 100 99 100 100 100 93 91 86 78 73 98 97 96 92 84 90 84 84 80 79 82 84
30 39 77 73 74 66 37 55 83 74 74 76 80 84 70 69 72 79 85 86 87 96 100 100 100 99 100 100 100 100 100 100 95 92 88 87 78 77 97 99 96 93 91 93 90 88 86 86 83
35 37 67 74 87 79 42 68 93 69 67 66 65 75 73 74 83 85 87 88 92 99 100 100 100 100 100 100 100 100 98 100 97 90 92 94 72 72 98 99 98 97 94 98 94 94 94 90 89
32 40 32 56 59 86 83 77 76 65 73 70 78 75 83 87 87 90 89 88 95 99 100 100 100 100 100 100 100 98 99 100 100 100 99 88 77 84 95 100 100 99 100 97 91 98 93 91 88
31 29 63 79 89 89 69 98 98 96 92 86 92 90 87 88 89 89 89 90 98 99 100 99 100 100 100 100 100 100 99 100 100 100 100 97 95 87 80 99 100 100 98 88 87 92 92 90 89
35 41 60 72 74 93 96 91 87 97 96 94 92 87 93 95 94 92 92 93 97 99 100 99 100 100 100 100 100 100 100 100 100 100 100 98 100 94 85 100 98 99 100 100 100 100 99 97 95
33 42 54 89 71 86 93 96 85 82 81 79 86 87 93 93 94 94 94 93 94 97 99 100 99 99 100 100 99 100 100 100 100 100 100 99 100 100 98 100 97 90 100 100 100 100 100 100 100
Wind_Speed
9 11 13 6 4 4 5 8 3 12 6 3 3 8 2 4 4 6 12 22 12 1 16 17 15 14 13 11 10 10 10 10 11 13 13 14 12 12 13 13 13 12 10 9 9 8 8 6 3
11 11 1 2 3 2 6 7 4 6 4 5 9 8 6 3 10 8 11 22 21 4 13 17 16 14 13 11 10 10 10 10 11 12 13 14 13 13 13 13 13 10 9 8 7 7 6 5 5
13 8 2 4 3 5 5 4 2 5 8 4 4 6 4 3 13 6 20 20 29 4 11 9 16 15 14 12 10 10 10 11 11 12 13 14 14 13 14 14 13 11 9 7 7 5 6 5 6
7 5 4 2 6 10 10 14 6 2 4 9 4 5 9 31 9 25 27 26 29 12 6 5 5 11 12 13 11 10 10 11 11 12 13 14 14 14 15 14 14 11 9 8 8 7 7 6 6
6 1 1 2 9 9 10 19 6 6 4 14 13 10 7 15 27 28 28 27 25 15 2 4 2 7 12 13 13 12 12 12 13 14 14 15 15 15 16 15 15 12 9 9 8 7 7 7 7
4 2 3 4 7 5 6 17 13 11 16 16 11 6 5 15 23 22 22 24 20 16 8 1 0 5 11 15 15 14 13 13 14 15 15 16 16 17 17 17 16 13 12 11 9 8 7 8 8
4 2 4 6 8 8 4 6 17 11 14 11 4 4 6 12 21 21 20 16 20 10 11 3 7 6 12 16 17 16 15 14 15 15 16 17 18 18 18 18 17 15 13 13 11 9 9 9 8
2 4 4 4 5 6 6 6 9 15 6 7 5 5 6 5 22 23 21 19 18 16 9 9 9 8 8 17 18 17 16 15 15 16 16 17 18 18 19 19 18 16 15 14 13 11 10 10 8
3 3 4 6 2 6 7 10 7 4 8 6 7 5 11 32 21 24 19 21 21 22 21 9 12 11 7 15 18 18 17 16 16 16 17 17 18 19 19 19 18 17 15 15 14 13 12 11 10
5 4 7 7 4 4 6 6 8 6 9 5 8 14 26 29 30 19 17 18 22 21 22 17 13 13 12 11 16 18 19 19 18 18 20 20 20 21 21 20 19 17 16 16 15 14 13 12 11
6 6 7 7 7 6 5 8 6 8 6 5 8 8 9 11 14 16 20 22 20 21 21 23 20 18 17 17 16 19 20 23 21 21 21 22 23 21 22 21 21 19 19 18 17 16 16 14 12
4 7 5 6 7 5 5 6 6 6 8 9 9 9 6 7 5 7 10 17 24 25 24 27 28 25 21 20 22 21 25 24 26 26 25 25 26 24 24 24 25 24 23 21 20 19 17 16 15
5 6 8 8 7 6 4 7 7 7 9 7 8 4 6 5 5 13 29 33 36 34 33 34 33 35 29 24 27 27 23 26 27 27 28 29 30 30 28 29 29 27 24 23 21 20 19 18 18
7 9 9 7 11 9 10 7 0 9 11 10 1 4 7 14 23 27 32 31 35 36 39 38 42 37 31 23 27 31 31 26 28 29 30 33 32 32 31 31 30 27 26 26 23 21 21 21 17
7 8 10 16 13 9 8 2 7 11 8 0 3 12 12 14 23 22 23 25 29 33 35 37 40 36 39 30 21 31 35 32 33 32 34 35 35 33 30 32 30 28 27 25 25 23 20 20 20
3 4 3 11 8 6 10 5 8 10 4 4 10 9 12 14 19 25 28 29 33 32 36 38 39 40 37 35 32 27 31 32 35 34 31 38 39 35 32 32 33 29 30 27 27 26 24 24 22
4 5 6 9 8 2 6 3 3 6 7 10 8 12 15 16 25 32 34 35 35 34 35 38 39 38 41 38 32 27 23 36 37 36 39 32 42 39 33 35 33 31 33 31 28 29 27 24 22
3 2 5 4 7 10 10 5 6 9 12 11 12 15 16 16 17 26 29 32 36 38 35 32 35 37 38 39 35 27 26 27 36 36 38 39 40 40 35 37 34 33 32 35 33 31 28 26 24
4 5 6 6 9 8 7 5 7 2 14 14 15 15 15 15 18 23 26 30 31 34 36 36 35 36 34 33 33 31 27 26 30 38 37 41 42 39 42 38 33 36 39 38 36 34 30 26 23
5 7 8 8 14 4 7 8 9 13 14 15 14 14 14 15 15 23 27 27 29 33 35 35 33 34 35 30 30 28 30 26 28 27 36 41 42 46 45 41 39 36 40 40 38 36 27 28 27
6 6 9 12 4 5 9 7 6 10 13 13 12 10 11 14 17 17 24 29 32 34 36 36 35 34 35 33 31 30 31 27 21 27 29 38 43 46 50 43 43 34 40 40 40 37 32 23 29
6 9 9 8 7 3 5 6 6 7 9 12 12 12 15 16 14 16 26 32 34 33 34 35 36 33 32 32 28 26 26 24 23 24 30 29 40 45 45 44 43 43 39 37 40 38 32 27 23
9 3 5 6 9 8 10 5 4 5 7 12 13 14 13 14 16 19 24 30 33 33 34 35 34 31 30 31 28 27 26 24 27 27 28 36 32 44 48 49 46 42 37 32 35 34 33 33 26
6 5 10 13 8 4 19 10 2 3 4 9 12 12 14 16 16 20 26 29 30 34 34 35 35 34 32 28 28 28 29 28 28 26 27 27 24 35 47 49 46 45 39 38 35 36 35 35 29
6 2 4 3 2 5 9 5 1 7 10 11 11 10 14 14 14 15 18 27 30 32 33 33 34 34 33 31 27 27 30 23 25 29 30 25 21 41 54 48 45 45 42 38 37 33 34 35 33
5 11 4 4 1 5 6 3 3 10 11 10 10 10 12 14 12 14 21 27 30 29 31 33 34 34 32 29 26 21 17 17 23 25 24 23 13 31 44 48 44 42 40 36 36 33 31 32 32
3 3 6 3 4 3 3 5 3 7 8 9 10 12 12 12 13 14 23 28 31 30 31 34 36 36 33 29 24 17 16 8 4 7 5 12 14 23 36 42 35 35 35 35 35 30 30 31 32
5 4 3 3 2 4 3 5 1 4 7 9 8 10 11 11 13 14 21 28 29 31 31 43 39 38 35 28 25 20 17 13 16 15 12 11 7 9 33 24 20 23 28 31 31 30 28 29 30
5 5 1 2 1 3 2 3 2 3 3 6 6 8 9 9 11 13 21 29 30 32 37 43 43 42 39 32 27 22 15 28 29 32 31 28 23 15 7 24 31 27 20 19 19 15 18 29 29
13 6 5 3 3 1 2 3 3 6 6 6 5 5 5 7 7 11 20 26 29 32 35 35 41 42 40 32 25 19 22 35 39 40 40 37 27 33 36 33 35 31 20 24 20 14 12 16 17
Wind_Direction
313 307 312 308 43 74 261 274 257 32 27 17 78 83 107 24 358 124 30 26 19 31 187 176 174 167 160 162 165 167 168 176 175 170 169 166 162 157 151 147 149 149 142 146 155 164 166 174 162
334 335 250 291 94 44 271 240 76 93 102 46 52 52 59 65 94 89 31 21 18 130 176 185 182 175 167 170 173 176 175 181 183 177 174 172 168 166 160 158 159 156 149 160 164 171 178 174 152
316 301 67 144 182 213 256 350 0 138 97 75 81 71 40 40 32 78 39 29 29 63 140 178 193 180 174 177 182 184 184 184 185 183 179 178 176 173 169 166 167 164 167 171 168 166 181 172 169
318 348 350 92 264 261 250 278 292 57 51 45 20 48 79 40 65 47 39 33 33 114 141 95 161 195 183 183 189 190 191 191 190 190 187 185 184 180 177 174 171 173 174 174 179 174 181 175 173
234 329 305 240 260 280 305 325 130 53 47 35 42 339 81 43 52 41 36 29 22 30 104 123 113 202 206 197 199 197 198 198 198 199 194 192 191 188 185 181 178 176 181 183 188 186 181 178 175
356 104 8 277 285 318 340 1 30 53 56 25 36 43 57 61 50 38 29 21 15 19 13 252 66 230 217 210 207 207 207 205 204 205 201 198 196 194 191 185 184 182 183 189 193 195 183 179 174
164 84 241 288 294 312 36 9 31 24 40 31 34 29 128 48 38 23 19 14 8 23 7 321 320 300 236 216 213 214 214 212 211 208 204 200 199 196 195 189 188 188 190 191 195 198 187 184 180
90 89 291 265 278 297 30 28 22 21 34 2 39 37 317 83 15 9 360 1 354 353 358 301 291 285 273 222 216 219 220 217 217 212 207 203 199 198 196 192 192 192 194 194 194 197 190 188 185
102 47 268 253 310 300 5 14 25 360 8 357 352 0 348 338 2 3 357 345 346 335 339 286 272 277 252 228 222 222 222 222 220 216 208 203 200 196 197 195 197 196 199 196 195 197 194 189 190
136 158 233 254 331 320 344 22 335 16 352 333 337 336 334 335 341 4 356 339 330 325 326 3 292 257 251 232 232 230 227 223 221 217 210 203 203 199 198 198 201 201 202 200 200 201 197 193 194
215 211 247 285 306 13 348 354 1 359 327 310 308 306 300 313 326 346 345 342 335 338 339 338 347 323 249 237 230 233 223 226 223 221 217 206 199 199 203 202 202 200 201 200 200 200 200 193 188
256 242 265 275 308 353 328 316 313 270 260 257 268 256 276 278 303 323 337 333 331 330 332 329 325 328 314 251 236 238 226 222 224 221 219 212 201 201 202 201 201 201 201 203 205 205 201 195 190
321 305 297 289 315 289 267 257 244 271 265 281 281 347 9 352 310 357 14 13 7 352 339 327 315 311 309 298 265 245 238 229 227 221 216 219 209 204 206 205 203 202 204 205 207 208 201 195 191
302 306 292 304 283 269 253 255 301 278 268 270 242 348 340 34 48 28 20 11 5 355 348 347 353 321 299 296 282 263 247 234 228 220 220 217 217 209 209 205 201 203 209 207 206 203 201 195 203
310 321 302 267 249 232 188 324 263 250 269 137 341 52 61 45 41 32 17 9 3 351 345 344 339 333 344 292 281 275 256 253 232 226 218 217 216 213 211 203 199 203 205 202 203 203 200 197 198
283 288 303 284 203 226 115 227 241 269 289 316 85 64 58 38 31 18 9 4 356 352 345 339 335 333 330 340 294 271 271 256 240 231 220 219 214 211 211 207 207 206 200 199 200 199 199 205 205
238 231 195 291 352 102 180 247 303 318 298 82 61 53 43 23 18 9 3 356 348 344 341 337 333 330 328 322 334 300 276 249 251 237 229 221 213 209 209 205 209 204 202 203 201 202 204 209 207
301 211 309 297 310 334 313 301 338 288 65 65 49 40 35 24 12 360 355 348 338 336 336 335 331 328 325 322 323 333 319 277 251 242 234 217 209 211 209 211 207 205 203 202 203 204 204 211 212
321 298 279 286 291 287 276 303 281 43 69 57 44 33 25 13 353 349 348 341 333 332 332 331 329 325 326 324 324 326 322 322 273 250 235 224 212 210 211 209 202 206 203 201 201 203 204 204 211
311 292 286 276 269 307 328 310 33 79 79 65 49 34 16 354 350 353 343 339 334 328 324 323 323 322 319 315 310 305 302 303 292 286 242 235 217 215 213 208 207 209 205 206 203 201 197 205 203
274 261 271 270 307 359 318 290 116 89 68 60 53 48 19 358 352 346 340 338 334 328 325 320 319 314 311 309 307 304 300 295 300 275 290 239 227 215 212 209 205 205 202 202 202 203 197 190 198
251 258 300 331 350 273 60 282 94 116 75 51 34 28 12 359 351 343 344 339 333 327 322 320 316 313 309 307 303 297 289 287 287 288 282 283 238 220 208 208 204 204 197 195 199 199 198 196 193
272 332 330 307 287 292 258 254 122 6 9 18 21 24 7 354 352 347 337 332 330 330 326 323 318 315 312 307 302 291 283 276 283 282 279 274 272 230 207 207 206 204 205 201 199 201 210 211 202
318 340 293 269 250 259 257 234 6 22 18 18 20 12 355 353 349 335 332 332 332 333 331 329 325 319 317 308 303 292 281 273 273 274 272 273 275 269 214 203 202 201 200 206 203 205 208 209 212
278 280 312 319 9 228 355 14 51 78 57 40 13 358 352 348 343 334 336 338 335 336 332 334 331 323 323 314 310 299 286 273 264 269 269 264 273 294 214 198 193 194 198 199 199 199 205 207 212
279 209 197 263 280 272 305 212 160 95 71 44 12 360 350 347 340 335 337 340 339 335 335 343 342 334 328 324 320 319 304 285 256 261 265 221 291 308 230 191 187 189 192 189 195 200 202 207 213
295 216 220 260 310 9 176 96 102 75 54 35 20 359 353 341 338 337 342 343 343 339 341 350 348 344 339 336 340 350 348 338 221 216 199 215 235 343 341 171 177 182 183 187 195 198 205 210 215
219 260 344 351 317 275 263 164 184 15 17 25 14 359 345 341 342 349 349 346 342 348 349 2 354 350 341 348 354 357 19 32 69 51 68 29 234 298 7 100 117 163 176 198 203 207 213 217 222
254 236 44 1 203 223 285 257 101 100 77 42 16 352 345 334 348 351 349 349 346 356 1 4 356 352 350 6 9 14 23 53 52 53 64 65 66 113 42 69 85 73 92 124 148 176 200 214 220
311 212 215 155 270 269 233 252 96 98 73 46 29 343 331 315 341 356 354 352 353 0 3 5 358 352 357 7 15 20 45 59 53 49 50 57 45 72 78 56 71 67 36 79 76 73 56 68 68